Flag for Canada Weather past 2 weeks in Fort Liard, Northwest Territories, Canada

16 °F

Passing clouds.

Feels Like: 16 °F
Forecast: 16 / 26 °F
Wind: 2 mph from North

Location: Fort Nelson

Current Time: Nov 28, 2015 at 8:33:39 PM

Latest Report: Nov 28, 2015 at 8:00 PM

Visibility: 15 mi

Pressure: 30.03 "Hg

Humidity: 86%

Dew point: 12 °F

Location of Fort LiardLocation

Historic Weather in Fort Liard — Graph


Fort Liard temperature yesterday

Maximum temperature yesterday: 23 °F (at 3:00 PM)
Minimum temperature yesterday: 7 °F (at 11:00 PM)
Average temperature yesterday: 15 °F

Past Weeks' High & Low Weather Summary

High43 °F (Nov 21, 9:00 PM)100% (Nov 15, 2:00 AM)30.50 "Hg (Nov 15, 2:00 AM)
Low-6 °F (Nov 18, 7:00 AM)28% (Nov 22, 3:00 PM)29.36 "Hg (Nov 13, 7:00 PM)
Average11 °F81%29.98 "Hg
* Reported Nov 13 7:00 PM — Nov 28 7:00 PM, Fort Liard, Weather by CustomWeather, © 2015

Note: Actual official high and low records may vary slightly from our data, if they occured in-between our weather recording intervals... More about our weather records


Fort Liard weather history for previous 24 hours

Time TempWeatherWind HumidityBarometerVisibility
7:00 PM
Sat, Nov 28
16 °FPassing clouds.2 mph86%30.04 "Hg15 mi
6:00 PM16 °FPassing clouds.3 mph86%30.04 "Hg15 mi
5:00 PM16 °FPassing clouds.3 mph86%30.04 "Hg20 mi
4:00 PM16 °FPartly sunny.2 mph79%30.04 "Hg30 mi
3:00 PM16 °FPartly sunny.3 mph79%30.04 "Hg30 mi
2:00 PM14 °FBroken clouds.2 mph79%30.05 "Hg15 mi
1:00 PM14 °FBroken clouds.No wind79%30.06 "Hg30 mi
12:00 PM10 °FBroken clouds.No wind85%30.06 "Hg30 mi
11:00 AM9 °FBroken clouds.No wind92%30.09 "Hg30 mi
10:00 AM9 °FBroken clouds.No wind92%30.08 "Hg30 mi
9:00 AM10 °FPassing clouds.No wind85%30.06 "Hg20 mi
8:00 AM7 °FPassing clouds.2 mph85%30.07 "Hg15 mi
7:00 AM5 °FPassing clouds.No wind85%30.09 "Hg15 mi
6:00 AM5 °FPassing clouds.2 mph92%30.09 "Hg15 mi
5:00 AM3 °FPassing clouds.2 mph92%30.11 "Hg15 mi
4:00 AM5 °FPassing clouds.2 mph85%30.12 "Hg15 mi
3:00 AM3 °FPassing clouds.No wind92%30.13 "Hg15 mi
2:00 AM10 °FPassing clouds.No wind85%30.12 "Hg15 mi
1:00 AM10 °FPassing clouds.2 mph85%30.13 "Hg15 mi
12:00 AM7 °FPassing clouds.3 mph92%30.14 "Hg15 mi
11:00 PM
Fri, Nov 27
7 °FPassing clouds.2 mph85%30.14 "Hg15 mi
10:00 PM12 °FPassing clouds.No wind92%30.14 "Hg15 mi
9:00 PM12 °FPassing clouds.3 mph92%30.14 "Hg15 mi
8:00 PM14 °FPassing clouds.No wind85%30.16 "Hg15 mi
Weather by CustomWeather, © 2015

See weather overviewHow to use our weather pages